Location: Turtle Rock Observatory
(36.6913°N, 81.9708°W)
Time: 10:55:11
(UTC-05:00)

Daily predictions for brighter satellites

Satellite Brightness Start Highest point End
(mag) Time Altitude Azimuth Time Altitude Azimuth Time Altitude Azimuth
Nadezhda 1 Rocket 4.1 18:39:42 10° N 18:45:38 51° E 18:51:29 10° SSE
Meteor 1-28 Rocket 3.2 18:42:12 10° N 18:46:00 89° WNW 18:49:49 10° SSW
Cosmos 1818 4.3 18:43:12 10° S 18:47:59 33° ESE 18:52:48 10° NE
NOSS 2-2 (D) 4.0 18:44:03 10° SW 18:48:00 61° NW 18:52:27 10° NNE
Tiangong 2 2.5 18:45:40 10° NW 18:48:20 26° N 18:50:56 10° ENE
Meteor 1-25 Rocket 4.3 18:43:47 10° S 18:49:13 58° E 18:54:45 10° NNE
Cosmos 1346 Rocket 2.9 18:46:55 10° N 18:50:52 82° W 18:54:45 10° S
Resurs 01 Rocket 2.9 18:48:36 10° ESE 18:51:48 20° ENE 18:55:00 10° NNE
Helios 1B rocket 4.3 18:56:57 12° E 18:56:57 12° E 18:58:17 10° ESE
H-2A R/B 4.2 18:58:38 10° ESE 19:01:03 17° ENE 19:03:34 10° NNE
Cosmos 44 3.3 18:56:51 10° NNW 19:01:05 44° NE 19:05:12 10° SE
DELTA 2 R/B (1) 3.8 18:55:40 10° W 19:01:15 65° N 19:05:58 15° ENE
FENGYUN 3A 4.2 18:56:57 10° SE 19:01:51 37° ENE 19:06:46 10° N
deb Kosmos-1763 4.1 19:02:25 10° S 19:06:11 70° ESE 19:09:58 10° NNE
Cosmos 1812 2.6 19:08:32 10° N 19:12:24 75° E 19:16:14 10° S
Cosmos 676 Rocket 4.2 19:08:55 10° S 19:13:52 48° ESE 19:18:51 10° NNE
Cosmos 407 Rocket 3.4 19:09:01 10° S 19:14:12 73° ESE 19:19:29 10° NNE
Cosmos 1992 Rocket 4.2 19:09:30 10° NNW 19:14:44 78° WSW 19:19:57 10° S
CZ-3C R/B 3.6 19:10:14 10° SW 19:15:29 15° SSW 19:18:19 10° SSE
Cosmos 1709 Rocket 4.1 19:09:50 10° SSE 19:15:54 54° E 19:21:55 10° NNE
Resurs 1-3 4.3 19:15:27 10° SE 19:19:20 32° ENE 19:23:15 10° N
Okean 2 Rocket 4.3 19:15:29 10° SSW 19:19:45 46° W 19:24:03 10° N
ERBS 3.3 19:19:54 10° NW 19:23:16 47° SW 19:26:35 10° SSE
Cosmos 1300 Rocket 4.0 19:19:26 10° SSE 19:23:29 38° E 19:27:34 10° NNE
ATLAS 2A CENTAUR R/B 3.3 19:23:51 10° SW 19:26:08 20° SSE 19:29:17 14° SE
OAO 3 Copernicus 4.3 19:22:20 10° W 19:27:25 74° S 19:30:12 27° E
FREGAT/IRIS 3.1 19:25:01 10° S 19:28:03 61° W 19:31:07 10° NNW
Cosmos 2360 Rocket 2.9 19:26:01 10° N 19:31:01 31° ENE 19:32:44 26° E
Cosmos 1980 Rocket 4.1 19:26:40 10° NW 19:31:40 33° WSW 19:36:40 10° SSW
Cosmos 1602 3.8 19:29:03 10° SSE 19:32:46 49° E 19:36:32 10° NNE
Cosmos 2151 Rocket 4.0 19:33:27 10° SSW 19:37:54 65° W 19:42:24 10° N
ALOS 2.2 19:36:20 10° SSE 19:41:00 89° W 19:45:41 10° NNW
SJ-6B 3.8 19:38:06 10° S 19:42:03 49° W 19:45:57 10° NNW
SL-8 R/B 4.2 19:39:16 10° WNW 19:43:59 56° SW 19:47:05 21° SSE
TSX-5 3.1 19:40:58 10° SSW 19:44:14 87° ESE 19:44:47 58° NNE
Cosmos 1140 Rocket 3.4 19:40:03 10° S 19:45:02 56° ESE 19:49:24 14° NNE
Cosmos 1833 4.1 19:39:35 10° SSW 19:45:16 71° ESE 19:50:55 10° NNE
Spot 1 4.4 19:49:08 40° NE 19:49:08 40° NE 19:52:20 10° N
Spot 2 Rocket 3.3 19:43:43 10° SSE 19:48:45 81° ENE 19:53:49 10° N
Cosmos 1238 Rocket 4.4 19:45:51 10° N 19:46:37 16° N 19:46:37 16° N
FengYun 1-2 T 4.3 19:44:46 10° S 19:50:14 81° WSW 19:55:45 10° NNW
Okean 1 Rocket 3.0 19:45:54 10° S 19:50:18 59° E 19:54:43 10° NNE
Gbstr 26 Del rocket 3.4 19:47:48 10° SSW 19:50:42 36° SSE 19:50:42 36° SSE
Cosmos 1850 Rocket 4.3 19:50:16 10° S 19:54:47 42° ESE 19:54:47 42° ESE
Cosmos 1461 2.6 19:51:53 10° NNW 19:55:54 84° ENE 19:56:31 63° SE
Meteor 1-19 Rocket 4.1 19:52:13 10° N 19:57:52 71° E 20:03:35 10° SSE
Helios 1A 3.4 20:02:05 46° NNE 20:02:05 46° NNE 20:05:13 10° N
Cosmos 614 Rocket 3.8 19:57:02 10° S 20:02:03 60° ESE 20:02:45 54° ENE
ASTRO E2 4.1 19:58:37 10° WSW 20:02:04 27° SSW 20:02:28 27° S
Cosmos 1633 3.2 19:58:31 10° SSW 20:02:08 56° W 20:05:46 10° N
SL-16 R/B 2.9 19:56:38 10° NNW 20:02:09 54° WSW 20:07:38 10° S
Cosmos 1954 Rocket 4.3 20:01:27 10° SSW 20:06:35 66° WNW 20:11:47 10° NNE
ATLAS CENTAUR R/B 4.1 20:02:42 10° S 20:04:45 17° S 20:04:45 17° S
Meteor 1-13 Rocket 4.2 20:04:17 10° NNW 20:09:49 78° W 20:15:25 10° S
H-2A R/B (2) 3.4 20:08:02 10° SSW 20:08:37 13° SSW 20:08:37 13° SSW
SL-24 R/B 4.4 20:08:20 17° S 20:12:18 80° E 20:17:51 10° N
Cosmos 1340 3.7 20:13:31 10° NNW 20:17:09 44° W 20:18:12 34° SW
Cosmos 2322 Rocket 3.7 20:16:23 10° NW 20:21:24 35° WSW 20:26:25 10° SSW
CZ-2D R/B 4.3 20:22:39 42° NW 20:22:39 42° NW 20:25:31 10° NNW
Tiangong 2 3.9 20:22:04 10° WNW 20:22:55 17° WNW 20:22:55 17° WNW
Meteor 1-23 Rocket 4.3 20:21:05 10° N 20:26:15 66° NNE 20:26:15 66° NNE
Resurs 01 Rocket 3.3 20:24:04 10° SSW 20:28:02 32° W 20:32:00 10° NNW
Cosmos 2322 3.6 20:25:06 10° NNW 20:30:39 83° N 20:30:39 83° N
Helios 1B rocket 3.7 20:33:19 38° WSW 20:33:19 38° WSW 20:36:15 10° SSW
Meteor 2-4 Rocket 3.8 20:34:27 10° NNW 20:40:00 68° W 20:40:14 67° WSW
Cosmos 2327 Rocket 4.5 20:34:12 10° S 20:40:21 79° W 20:46:40 10° N
COSMOS 2428 3.9 20:36:01 10° NNW 20:39:00 30° N 20:39:00 30° N
BREEZE-M DEB (TANK) 4.4 20:41:38 10° NW 20:44:45 52° N 20:44:45 52° N
DELTA 2 R/B (1) 4.1 20:42:20 10° WNW 20:46:45 57° WNW 20:46:45 57° WNW
Cosmos 2360 Rocket 3.7 21:09:57 10° NW 21:14:35 33° W 21:14:35 33° W
Cosmos 2219 Rocket 4.5 21:14:12 10° NNW 21:15:05 15° NNW 21:15:05 15° NNW
